Tracking 19475 objects as of 18-Jan-2019
HD Live streaming from Space Station
objects crossing your sky now

LEMUR 2 VU

Track LEMUR 2 VU now!
10-day predictions
LEMUR 2 VU is classified as:


NORAD ID: 43558
Int'l Code: 2018-046E
Perigee: 481.9 km
Apogee: 492.4 km
Inclination: 51.6 °
Period: 94.2 minutes
Semi major axis: 6858 km
RCS: Unknown
Launch date: May 21, 2018
Source: United States (US)
Launch site: WALLOPS ISLAND (WLPIS)
aabbcc
Your satellite tracking list
Your tracking list is empty




NASA's NSSDC Master Catalog

Two Line Element Set (TLE):
1 43558U 18046E   19017.60792201  .00002756  00000-0  11024-3 0  9990
2 43558  51.6417  65.5818 0007650 245.6660 114.3521 15.28586878 28297
Source of the keplerian elements: AFSPC